Dewpoint
68 69 70 70 70 70 70 69 70 69 69 69 68 67 65 64 64 62 60 58 58 58 62 63 62 61 60 59 57 56 58 57
68 68 69 70 70 69 69 69 69 69 68 68 67 65 64 64 63 61 59 57 56 58 63 62 61 60 59 58 57 59 57 55
67 68 68 69 69 69 69 69 69 68 68 67 65 64 64 63 61 61 59 57 56 59 62 61 60 59 58 57 57 57 55 54
65 67 68 67 69 69 68 68 68 67 66 65 63 63 62 61 61 60 59 57 56 58 61 60 59 58 57 56 56 56 55 54
64 65 67 66 67 68 68 67 67 66 65 63 62 62 61 61 60 59 58 57 55 58 59 57 57 55 54 56 56 55 54 54
63 64 65 66 67 68 68 67 66 65 63 62 61 60 59 59 59 57 56 53 51 52 53 54 54 53 54 55 55 54 53 54
63 63 64 65 66 67 67 67 66 64 62 61 61 59 58 58 57 56 54 51 48 46 51 53 53 53 53 53 53 52 53 53
63 63 63 64 65 66 66 66 65 63 62 61 60 59 57 57 56 55 52 49 45 45 51 52 52 52 51 51 51 51 51 52
63 63 63 63 64 65 65 65 64 63 61 60 59 58 57 56 55 54 52 47 43 46 50 52 51 50 49 49 49 49 49 50
63 64 63 63 63 63 64 64 64 63 61 60 59 58 56 55 54 53 51 45 43 45 51 51 50 49 48 48 47 47 48 48
63 63 64 63 63 62 63 63 63 62 61 60 58 57 56 55 54 53 50 44 43 45 50 51 49 48 47 46 46 46 46 46
64 63 63 64 63 62 62 62 62 62 61 59 58 57 56 55 53 51 50 44 43 46 48 50 49 48 45 43 43 44 44 44
64 63 63 63 64 63 62 61 61 61 61 59 58 58 56 55 53 50 49 44 42 45 47 48 47 45 43 41 39 41 42 42
63 63 63 63 63 63 63 62 62 61 61 60 58 57 56 55 53 51 49 45 43 44 46 47 44 46 45 39 38 38 39 39
62 63 63 63 62 63 63 63 62 62 61 60 57 57 56 55 53 52 49 45 42 44 45 45 44 45 43 39 36 36 36 37
61 63 63 63 63 62 61 60 60 61 60 60 59 57 56 55 53 52 49 45 42 43 45 45 45 45 42 37 37 37 36 35
55 61 63 63 62 62 61 60 60 60 60 60 59 57 56 55 53 51 49 46 43 42 44 44 44 45 43 36 35 34 35 34
42 56 61 63 62 62 61 60 59 59 60 59 59 58 56 55 54 52 50 46 43 42 43 44 44 44 43 36 35 33 33 32
50 44 58 62 62 61 61 61 60 59 59 59 58 57 56 55 54 52 50 48 45 43 43 43 43 43 42 39 36 34 34 34
53 54 48 60 62 61 61 61 60 60 59 59 58 57 56 56 55 53 51 49 46 45 43 42 43 43 41 41 37 35 34 34
Wind_Speed
16 18 22 23 25 25 25 26 27 28 27 26 25 24 23 22 22 21 20 19 20 21 22 25 25 25 24 23 22 21 18 14
16 17 19 20 21 24 25 24 25 26 25 24 24 22 22 20 22 20 19 19 21 21 25 25 25 25 23 22 21 20 18 17
18 17 17 18 20 21 23 23 24 25 24 25 25 19 20 19 16 18 18 19 21 21 25 24 24 24 22 21 18 13 16 15
17 18 17 17 17 20 21 21 20 19 19 21 17 19 18 20 19 19 17 18 20 20 24 25 20 16 15 15 12 15 14 14
16 16 19 19 16 18 18 18 18 17 18 18 18 17 16 16 16 15 15 17 16 17 19 14 15 15 15 13 13 14 13 12
19 18 18 20 17 19 18 19 19 18 17 19 19 16 16 16 15 15 15 16 19 18 17 17 17 16 17 16 15 14 14 13
23 22 22 20 19 18 18 18 18 18 19 18 18 18 18 18 17 17 15 15 18 19 18 17 17 16 14 17 17 16 15 14
25 26 26 24 22 22 20 19 20 19 20 20 19 18 19 18 18 18 18 17 16 18 19 18 16 16 15 13 13 14 15 14
30 30 27 28 27 24 22 19 20 21 20 21 21 19 20 19 17 16 17 17 19 18 18 17 18 15 17 15 15 14 14 14
34 30 32 30 30 26 23 22 21 21 20 21 23 22 23 21 19 18 17 17 18 18 19 17 17 16 15 13 14 14 15 14
32 33 33 35 30 27 25 22 23 21 20 22 25 24 24 23 21 18 20 18 16 17 15 20 19 16 15 13 11 12 13 13
33 33 34 34 28 23 20 19 19 19 21 23 27 25 26 23 21 20 20 19 18 17 19 14 18 19 17 14 10 7 7 11
31 33 35 29 26 28 27 29 28 26 25 26 28 26 26 24 22 24 23 23 23 22 20 26 16 19 19 13 10 7 6 5
32 35 34 35 31 32 27 31 29 27 22 23 24 26 27 26 26 26 28 23 24 24 26 20 9 23 15 10 7 2 1 2
31 36 37 37 37 27 22 20 16 18 22 25 27 29 29 29 27 27 27 27 29 27 28 26 22 22 26 11 8 9 11 4
25 29 33 36 35 30 33 32 30 27 33 33 31 34 33 31 29 28 29 26 30 32 27 26 23 32 21 5 5 14 8 7
18 25 30 33 35 35 34 34 32 26 25 28 29 30 33 33 29 29 30 28 29 33 31 31 26 29 27 11 12 6 10 7
17 22 28 32 33 38 38 39 34 29 28 29 31 30 31 34 34 32 31 30 31 32 33 33 30 27 25 20 19 14 14 8
18 16 25 31 36 37 39 39 39 37 33 32 30 28 29 36 40 38 35 34 32 32 33 33 33 31 31 24 17 14 15 9
14 17 19 26 36 39 38 39 34 35 35 30 32 32 33 31 35 35 35 33 31 31 31 32 30 30 30 26 20 17 19 15
Wind_Direction
163 170 165 161 155 156 158 161 155 151 150 149 146 146 146 145 140 139 138 136 133 131 136 134 130 126 125 124 121 117 110 107
170 174 172 165 162 161 159 160 155 151 149 145 141 140 141 142 139 140 142 139 136 132 136 135 132 129 128 124 117 112 108 108
181 177 174 171 169 167 162 162 158 152 147 143 140 141 138 138 137 142 143 139 135 133 136 134 131 129 128 121 113 113 110 106
188 184 178 174 169 172 172 171 168 160 152 148 144 141 141 137 140 143 143 135 132 132 135 131 126 126 122 112 114 117 112 110
198 198 187 178 180 174 173 179 172 165 154 149 143 139 143 139 142 147 146 137 132 130 129 122 123 120 117 113 114 113 114 114
194 198 199 190 183 182 180 176 176 168 159 151 149 145 146 144 145 150 149 143 138 134 127 121 117 120 124 121 120 123 122 121
199 197 198 195 191 187 178 179 175 169 160 160 157 154 155 150 149 150 153 148 144 139 133 128 123 121 120 127 130 131 128 126
196 198 199 194 196 195 187 177 172 166 169 169 162 160 159 161 158 158 158 158 149 143 142 134 125 125 118 116 123 125 124 123
198 196 196 198 198 194 192 182 175 173 174 169 165 163 163 160 160 160 160 155 145 134 131 127 127 123 128 127 127 123 119 115
195 193 195 198 198 196 194 188 181 179 175 172 171 168 166 163 164 166 158 154 153 148 148 140 136 136 132 127 126 121 119 115
198 193 193 197 199 197 196 191 188 185 177 178 177 174 171 170 168 165 157 156 155 150 149 149 144 134 126 120 121 124 125 123
198 195 199 195 193 194 194 192 191 187 187 185 180 181 175 170 167 164 157 158 158 152 148 142 147 139 123 105 90 89 113 124
200 196 199 193 190 186 187 192 192 194 194 188 186 184 179 175 165 165 168 171 171 158 146 144 138 135 120 97 72 70 92 112
199 201 197 194 198 198 194 197 197 197 197 193 190 185 182 179 173 178 175 168 170 166 159 152 143 165 155 124 143 116 160 122
202 202 198 196 199 201 201 194 189 192 199 193 190 188 187 187 180 177 177 173 176 175 170 171 161 184 168 148 152 192 147 185
214 208 202 202 198 195 195 198 195 200 199 197 190 189 190 189 183 179 179 180 178 181 179 178 166 180 185 187 152 140 166 166
238 218 208 206 201 200 201 205 210 208 203 202 198 193 191 190 185 184 182 183 185 181 181 183 182 179 184 160 144 124 128 141
305 226 212 210 207 205 205 208 209 207 201 200 200 194 192 190 187 189 188 186 184 185 186 184 183 186 189 180 171 164 169 151
319 293 225 208 211 210 211 212 211 209 204 205 200 199 193 193 190 190 191 190 186 183 184 189 189 187 187 187 179 175 152 134
329 307 282 219 212 214 212 214 214 215 211 205 205 205 205 199 195 193 191 188 186 186 186 188 189 192 188 186 182 173 162 158